When you browse on this site, cookies collect data to enhance your experience and personalize the content and advertising you see.
Visit our Privacy Policy to learn more. By continuing to use the site, you agree to this use of cookies and data.
  • In Germany
  • List of Countries
  • For 7 days
  • Water Temperature
  • Satellite Maps
  • Weather Map
  • Weather Widgets
  • user-avatar
    Login

    Hourly Weather Bindura

    Today, 20 January, Sunday

    Time Temperature Precipitation Wind Pressure Humidity
    00:00 +22°C° 0 mm 1 mps 667 mmHg 71%
    01:00 +22°C° 0 mm 1 mps 667 mmHg 74%
    02:00 +22°C° 0 mm 1 mps 667 mmHg 75%
    03:00 +22°C° 0 mm 1 mps 667 mmHg 77%
    04:00 +22°C° 0 mm 1 mps 667 mmHg 79%
    05:00 +22°C° 0 mm 1 mps 667 mmHg 81%
    06:00 +22°C° 0 mm 1 mps 668 mmHg 80%
    07:00 +23°C° 0 mm 2 mps 668 mmHg 79%
    08:00 +24°C° 0 mm 2 mps 669 mmHg 77%
    09:00 +25°C° 0.7 mm 2 mps 669 mmHg 75%
    10:00 +26°C° 0.7 mm 3 mps 670 mmHg 73%
    11:00 +26°C° 0.7 mm 4 mps 670 mmHg 71%
    12:00 +27°C° 1.3 mm 3 mps 669 mmHg 71%
    13:00 +27°C° 1.3 mm 3 mps 669 mmHg 72%
    14:00 +27°C° 0 mm 3 mps 669 mmHg 72%
    15:00 +26°C° 0.6 mm 3 mps 669 mmHg 74%
    16:00 +25°C° 0.6 mm 3 mps 669 mmHg 77%
    17:00 +25°C° 0.6 mm 3 mps 668 mmHg 79%
    18:00 +24°C° 0 mm 2 mps 669 mmHg 80%
    19:00 +21°C° 0 mm 2 mps 669 mmHg 82%
    20:00 +20°C° 0 mm 2 mps 669 mmHg 83%
    21:00 +20°C° 0 mm 2 mps 669 mmHg 83%
    22:00 +20°C° 0 mm 2 mps 669 mmHg 82%
    23:00 +19°C° 0 mm 2 mps 670 mmHg 82%

    Tomorrow, 21 January, Monday

    Time Temperature Precipitation Wind Pressure Humidity
    00:00 +19°C° 0 mm 2 mps 669 mmHg 82%
    01:00 +19°C° 0 mm 2 mps 669 mmHg 82%
    02:00 +18°C° 0 mm 2 mps 669 mmHg 83%
    03:00 +18°C° 0 mm 2 mps 669 mmHg 83%
    04:00 +19°C° 0 mm 1 mps 669 mmHg 84%
    05:00 +18°C° 0 mm 1 mps 669 mmHg 84%
    06:00 +19°C° 0 mm 2 mps 669 mmHg 80%
    07:00 +20°C° 0 mm 2 mps 670 mmHg 75%
    08:00 +21°C° 0 mm 3 mps 670 mmHg 70%
    09:00 +24°C° 0 mm 3 mps 670 mmHg 65%
    10:00 +26°C° 0 mm 3 mps 671 mmHg 60%
    11:00 +28°C° 0 mm 3 mps 671 mmHg 55%
    12:00 +28°C° 0 mm 3 mps 670 mmHg 54%
    13:00 +28°C° 0 mm 4 mps 670 mmHg 53%
    14:00 +29°C° 0 mm 4 mps 669 mmHg 52%
    15:00 +28°C° 0 mm 4 mps 669 mmHg 56%
    16:00 +27°C° 0 mm 4 mps 668 mmHg 59%
    17:00 +26°C° 0 mm 4 mps 667 mmHg 63%
    18:00 +24°C° 0 mm 3 mps 667 mmHg 68%
    19:00 +21°C° 0 mm 3 mps 667 mmHg 73%
    20:00 +19°C° 0 mm 2 mps 667 mmHg 78%
    21:00 +20°C° 0 mm 1 mps 668 mmHg 80%
    22:00 +19°C° 0 mm 1 mps 668 mmHg 82%
    23:00 +19°C° 0 mm 1 mps 668 mmHg 84%

    Day after tomorrow, 22 January, Tuesday

    Time Temperature Precipitation Wind Pressure Humidity
    00:00 +19°C° 0 mm 1 mps 668 mmHg 85%
    01:00 +18°C° 0 mm 1 mps 667 mmHg 86%
    02:00 +18°C° 0 mm 1 mps 667 mmHg 87%
    03:00 +18°C° 0 mm 1 mps 666 mmHg 89%
    04:00 +18°C° 0 mm 1 mps 666 mmHg 90%
    05:00 +18°C° 0 mm 1 mps 666 mmHg 91%
    06:00 +19°C° 0 mm 1 mps 667 mmHg 86%
    07:00 +21°C° 0 mm 1 mps 667 mmHg 81%
    08:00 +22°C° 0 mm 1 mps 668 mmHg 75%
    09:00 +24°C° 0 mm 2 mps 668 mmHg 69%
    10:00 +26°C° 0 mm 2 mps 668 mmHg 63%
    11:00 +28°C° 0 mm 2 mps 669 mmHg 56%
    12:00 +29°C° 0.1 mm 2 mps 668 mmHg 55%
    13:00 +29°C° 0.1 mm 2 mps 667 mmHg 54%
    14:00 +30°C° 0.1 mm 2 mps 667 mmHg 53%
    15:00 +28°C° 0.6 mm 2 mps 666 mmHg 62%
    16:00 +27°C° 0.6 mm 2 mps 666 mmHg 70%
    17:00 +26°C° 0.6 mm 2 mps 665 mmHg 78%
    18:00 +24°C° 0.1 mm 2 mps 665 mmHg 81%
    19:00 +23°C° 0.1 mm 2 mps 665 mmHg 84%
    20:00 +21°C° 0.1 mm 1 mps 665 mmHg 87%
    21:00 +21°C° 0 mm 1 mps 666 mmHg 87%
    22:00 +21°C° 0 mm 1 mps 666 mmHg 88%
    23:00 +18°C° 0 mm 0 mps 666 mmHg 88%

    23 January, Wednesday

    Time Temperature Precipitation Wind Pressure Humidity
    00:00 +18°C° 0 mm 0 mps 666 mmHg 89%
    01:00 +20°C° 0 mm 1 mps 666 mmHg 90%
    02:00 +20°C° 0 mm 1 mps 665 mmHg 91%
    03:00 +20°C° 0 mm 1 mps 665 mmHg 92%
    04:00 +19°C° 0 mm 1 mps 665 mmHg 93%
    05:00 +19°C° 0 mm 1 mps 665 mmHg 94%
    06:00 +19°C° 0 mm 0 mps 666 mmHg 89%
    07:00 +20°C° 0 mm 0 mps 666 mmHg 85%
    08:00 +22°C° 0 mm 0 mps 667 mmHg 80%
    09:00 +24°C° 0.2 mm 0 mps 667 mmHg 73%
    10:00 +26°C° 0.2 mm 0 mps 667 mmHg 65%
    11:00 +31°C° 0.2 mm 1 mps 668 mmHg 58%
    12:00 +30°C° 1.3 mm 1 mps 667 mmHg 61%
    13:00 +29°C° 1.3 mm 1 mps 666 mmHg 65%
    14:00 +29°C° 1.3 mm 1 mps 665 mmHg 69%
    15:00 +28°C° 1.6 mm 1 mps 665 mmHg 72%
    16:00 +27°C° 1.6 mm 1 mps 664 mmHg 76%
    17:00 +27°C° 1.6 mm 1 mps 664 mmHg 79%
    18:00 +23°C° 0.7 mm 0 mps 664 mmHg 82%
    19:00 +22°C° 0.7 mm 0 mps 665 mmHg 85%
    20:00 +21°C° 0.7 mm 0 mps 665 mmHg 88%
    21:00 +21°C° 0.1 mm 0 mps 666 mmHg 88%
    22:00 +20°C° 0.1 mm 0 mps 666 mmHg 88%
    23:00 +22°C° 0.1 mm 1 mps 666 mmHg 89%

    24 January, Thursday

    Time Temperature Precipitation Wind Pressure Humidity
    00:00 +20°C° 0 mm 0 mps 666 mmHg 89%
    01:00 +19°C° 0 mm 0 mps 665 mmHg 90%
    02:00 +19°C° 0 mm 0 mps 665 mmHg 91%
    03:00 +19°C° 0 mm 0 mps 665 mmHg 92%
    04:00 +18°C° 0 mm 0 mps 665 mmHg 92%
    05:00 +20°C° 0 mm 1 mps 665 mmHg 93%
    06:00 +21°C° 0 mm 1 mps 666 mmHg 88%
    07:00 +21°C° 0 mm 0 mps 667 mmHg 84%
    08:00 +23°C° 0 mm 0 mps 667 mmHg 79%
    09:00 +26°C° 0.3 mm 1 mps 668 mmHg 72%
    10:00 +28°C° 0.3 mm 1 mps 668 mmHg 66%
    11:00 +30°C° 0.3 mm 1 mps 668 mmHg 59%
    12:00 +29°C° 1.6 mm 1 mps 667 mmHg 63%
    13:00 +29°C° 1.6 mm 1 mps 667 mmHg 67%
    14:00 +28°C° 1.6 mm 1 mps 666 mmHg 72%
    15:00 +27°C° 1.9 mm 1 mps 666 mmHg 75%
    16:00 +27°C° 1.9 mm 1 mps 665 mmHg 79%
    17:00 +24°C° 1.9 mm 0 mps 665 mmHg 83%
    18:00 +23°C° 1.4 mm 0 mps 666 mmHg 85%
    19:00 +22°C° 1.4 mm 0 mps 666 mmHg 86%
    20:00 +21°C° 1.4 mm 0 mps 666 mmHg 88%
    21:00 +21°C° 0.3 mm 0 mps 667 mmHg 89%
    22:00 +20°C° 0.3 mm 0 mps 667 mmHg 90%
    23:00 +20°C° 0.3 mm 0 mps 668 mmHg 91%

    25 January, Friday

    Time Temperature Precipitation Wind Pressure Humidity
    00:00 +20°C° 0.1 mm 0 mps 667 mmHg 92%
    01:00 +20°C° 0.1 mm 0 mps 667 mmHg 93%
    02:00 +19°C° 0.1 mm 0 mps 666 mmHg 94%
    03:00 +19°C° 0 mm 0 mps 667 mmHg 94%
    04:00 +19°C° 0 mm 0 mps 667 mmHg 94%
    05:00 +19°C° 0 mm 0 mps 667 mmHg 95%
    06:00 +20°C° 0 mm 0 mps 668 mmHg 91%
    07:00 +21°C° 0 mm 0 mps 668 mmHg 88%
    08:00 +22°C° 0 mm 0 mps 669 mmHg 84%
    09:00 +23°C° 0.4 mm 0 mps 669 mmHg 79%
    10:00 +27°C° 0.4 mm 1 mps 669 mmHg 74%
    11:00 +28°C° 0.4 mm 1 mps 669 mmHg 69%
    12:00 +29°C° 1.3 mm 1 mps 669 mmHg 68%
    13:00 +29°C° 1.3 mm 1 mps 668 mmHg 68%
    14:00 +28°C° 1.3 mm 0 mps 667 mmHg 68%
    15:00 +29°C° 0.4 mm 1 mps 667 mmHg 69%
    16:00 +28°C° 0.4 mm 1 mps 667 mmHg 69%
    17:00 +28°C° 0.4 mm 1 mps 666 mmHg 70%
    18:00 +26°C° 0.4 mm 1 mps 666 mmHg 78%
    19:00 +24°C° 0.4 mm 1 mps 667 mmHg 85%
    20:00 +23°C° 0.4 mm 1 mps 667 mmHg 93%
    21:00 +20°C° 0 mm 0 mps 667 mmHg 94%
    22:00 +20°C° 0 mm 0 mps 668 mmHg 95%
    23:00 +20°C° 0 mm 0 mps 668 mmHg 96%
    Show more